Location: Newark
(7.0858°N, 171.3717°E)
Time: 17:01:19
(UTC+00:00)

Altair - Pass Details

Date: 26 November 2020
Orbit: 1501 x 1682 km, 47.2° (Epoch: 20 January)

Event Time Altitude Azimuth Distance (km) Brightness Sun altitude
Rises 09:31:28 0° 269° (W) 4,755 10.7 -46.5°
Reaches altitude 10° 09:36:55 10° 293° (WNW) 3,728 9.8 -47.8°
Enters shadow 09:40:39 13° 317° (NW) 3,432 9.4 -48.6°
